Hourly Weather Pinang

Today, 12 July, Sunday

Time Temperature Precipitation Wind Pressure Humidity
00:00 +27°C° 0 mm 1 mps 754 mmHg 90%
01:00 +27°C° 0 mm 1 mps 754 mmHg 89%
02:00 +26°C° 0 mm 1 mps 754 mmHg 91%
03:00 +26°C° 0 mm 1 mps 754 mmHg 92%
04:00 +26°C° 0 mm 1 mps 753 mmHg 93%
05:00 +26°C° 0 mm 1 mps 754 mmHg 92%
06:00 +26°C° 0 mm 1 mps 754 mmHg 91%
07:00 +26°C° 0 mm 1 mps 754 mmHg 88%
08:00 +28°C° 0 mm 1 mps 754 mmHg 80%
09:00 +30°C° 0 mm 2 mps 754 mmHg 73%
10:00 +31°C° 0 mm 2 mps 754 mmHg 66%
11:00 +32°C° 0.2 mm 2 mps 754 mmHg 63%
12:00 +34°C° 0.2 mm 2 mps 753 mmHg 61%
13:00 +35°C° 0 mm 2 mps 753 mmHg 61%
14:00 +34°C° 1.9 mm 2 mps 752 mmHg 67%
15:00 +32°C° 1.9 mm 2 mps 752 mmHg 72%
16:00 +32°C° 1.9 mm 1 mps 751 mmHg 78%
17:00 +30°C° 0.5 mm 1 mps 752 mmHg 82%
18:00 +29°C° 0.5 mm 1 mps 752 mmHg 85%
19:00 +28°C° 0.5 mm 1 mps 752 mmHg 89%
20:00 +28°C° 0.1 mm 1 mps 753 mmHg 90%
21:00 +27°C° 0.1 mm 1 mps 754 mmHg 90%
22:00 +27°C° 0.1 mm 1 mps 754 mmHg 91%
23:00 +27°C° 0.3 mm 1 mps 754 mmHg 91%

Tomorrow, 13 July, Monday

Time Temperature Precipitation Wind Pressure Humidity
00:00 +27°C° 0.3 mm 1 mps 754 mmHg 92%
01:00 +27°C° 0.3 mm 1 mps 753 mmHg 92%
02:00 +26°C° 0.2 mm 1 mps 753 mmHg 92%
03:00 +26°C° 0.2 mm 1 mps 753 mmHg 92%
04:00 +26°C° 0.2 mm 1 mps 752 mmHg 92%
05:00 +26°C° 0.1 mm 1 mps 753 mmHg 91%
06:00 +27°C° 0.1 mm 1 mps 753 mmHg 90%
07:00 +27°C° 0.1 mm 1 mps 754 mmHg 89%
08:00 +28°C° 0.7 mm 1 mps 754 mmHg 85%
09:00 +29°C° 0.7 mm 1 mps 754 mmHg 81%
10:00 +31°C° 0.7 mm 1 mps 754 mmHg 77%
11:00 +30°C° 1.9 mm 1 mps 754 mmHg 80%
12:00 +30°C° 1.9 mm 1 mps 754 mmHg 83%
13:00 +29°C° 1.9 mm 1 mps 754 mmHg 86%
14:00 +28°C° 1.4 mm 2 mps 754 mmHg 88%
15:00 +27°C° 1.4 mm 2 mps 753 mmHg 90%
16:00 +26°C° 1.4 mm 3 mps 753 mmHg 92%
17:00 +26°C° 0.2 mm 3 mps 753 mmHg 91%
18:00 +26°C° 0.2 mm 3 mps 754 mmHg 90%
19:00 +25°C° 0.2 mm 3 mps 754 mmHg 90%
20:00 +25°C° 0.1 mm 3 mps 755 mmHg 91%
21:00 +25°C° 0.1 mm 2 mps 755 mmHg 92%
22:00 +25°C° 0.1 mm 2 mps 755 mmHg 93%
23:00 +24°C° 0 mm 2 mps 755 mmHg 94%

Day after tomorrow, 14 July, Tuesday

Time Temperature Precipitation Wind Pressure Humidity
00:00 +24°C° 0 mm 2 mps 755 mmHg 94%
01:00 +24°C° 0 mm 2 mps 754 mmHg 94%
02:00 +24°C° 0 mm 1 mps 754 mmHg 95%
03:00 +24°C° 0 mm 1 mps 753 mmHg 95%
04:00 +24°C° 0 mm 1 mps 753 mmHg 95%
05:00 +24°C° 0 mm 1 mps 753 mmHg 94%
06:00 +24°C° 0 mm 1 mps 754 mmHg 93%
07:00 +25°C° 0 mm 1 mps 754 mmHg 92%
08:00 +26°C° 0 mm 1 mps 754 mmHg 85%
09:00 +28°C° 0 mm 1 mps 755 mmHg 77%
10:00 +30°C° 0 mm 2 mps 755 mmHg 70%
11:00 +31°C° 0.1 mm 2 mps 755 mmHg 68%
12:00 +31°C° 0.1 mm 2 mps 754 mmHg 67%
13:00 +32°C° 0.1 mm 2 mps 754 mmHg 65%
14:00 +31°C° 0.6 mm 2 mps 753 mmHg 68%
15:00 +31°C° 0.6 mm 2 mps 753 mmHg 72%
16:00 +31°C° 0.6 mm 2 mps 752 mmHg 75%
17:00 +30°C° 0 mm 1 mps 753 mmHg 79%
18:00 +29°C° 0 mm 1 mps 753 mmHg 84%
19:00 +28°C° 0 mm 1 mps 754 mmHg 88%
20:00 +27°C° 0 mm 1 mps 754 mmHg 89%
21:00 +27°C° 0 mm 1 mps 754 mmHg 90%
22:00 +27°C° 0 mm 1 mps 755 mmHg 91%
23:00 +27°C° 0.1 mm 1 mps 755 mmHg 92%

15 July, Wednesday

Time Temperature Precipitation Wind Pressure Humidity
00:00 +26°C° 0.1 mm 1 mps 754 mmHg 92%
01:00 +26°C° 0.1 mm 1 mps 754 mmHg 93%
02:00 +26°C° 0.2 mm 1 mps 754 mmHg 93%
03:00 +26°C° 0.2 mm 1 mps 753 mmHg 93%
04:00 +26°C° 0.2 mm 1 mps 753 mmHg 93%
05:00 +26°C° 0 mm 1 mps 753 mmHg 93%
06:00 +24°C° 0 mm 0 mps 753 mmHg 92%
07:00 +24°C° 0 mm 0 mps 753 mmHg 92%
08:00 +24°C° 0 mm 0 mps 754 mmHg 90%
09:00 +25°C° 0 mm 0 mps 754 mmHg 88%
10:00 +27°C° 0 mm 1 mps 754 mmHg 86%
11:00 +26°C° 0 mm 0 mps 754 mmHg 81%
12:00 +27°C° 0 mm 0 mps 753 mmHg 77%
13:00 +28°C° 0 mm 0 mps 753 mmHg 72%
14:00 +31°C° 0 mm 1 mps 752 mmHg 69%
15:00 +32°C° 0 mm 1 mps 752 mmHg 67%
16:00 +32°C° 0 mm 1 mps 751 mmHg 64%
17:00 +31°C° 0.1 mm 1 mps 751 mmHg 72%
18:00 +29°C° 0.1 mm 2 mps 752 mmHg 79%
19:00 +28°C° 0.1 mm 2 mps 752 mmHg 87%
20:00 +27°C° 0.4 mm 2 mps 753 mmHg 88%
21:00 +27°C° 0.4 mm 2 mps 753 mmHg 90%
22:00 +27°C° 0.4 mm 1 mps 754 mmHg 92%
23:00 +26°C° 0 mm 1 mps 754 mmHg 92%

16 July, Thursday

Time Temperature Precipitation Wind Pressure Humidity
00:00 +26°C° 0 mm 1 mps 753 mmHg 93%
01:00 +26°C° 0 mm 1 mps 753 mmHg 93%
02:00 +26°C° 0 mm 1 mps 753 mmHg 94%
03:00 +26°C° 0 mm 1 mps 753 mmHg 94%
04:00 +26°C° 0 mm 1 mps 752 mmHg 94%
05:00 +26°C° 0 mm 1 mps 753 mmHg 93%
06:00 +26°C° 0 mm 1 mps 753 mmHg 93%
07:00 +26°C° 0 mm 1 mps 753 mmHg 92%
08:00 +28°C° 0.1 mm 1 mps 754 mmHg 84%
09:00 +30°C° 0.1 mm 1 mps 754 mmHg 76%
10:00 +32°C° 0.1 mm 1 mps 754 mmHg 68%
11:00 +33°C° 0 mm 1 mps 754 mmHg 64%
12:00 +33°C° 0 mm 1 mps 753 mmHg 61%
13:00 +35°C° 0 mm 2 mps 753 mmHg 57%
14:00 +34°C° 1.1 mm 2 mps 752 mmHg 63%
15:00 +32°C° 1.1 mm 2 mps 751 mmHg 69%
16:00 +31°C° 1.1 mm 2 mps 751 mmHg 75%
17:00 +30°C° 1 mm 1 mps 751 mmHg 80%
18:00 +29°C° 1 mm 1 mps 752 mmHg 84%
19:00 +28°C° 1 mm 1 mps 752 mmHg 89%
20:00 +27°C° 0.5 mm 1 mps 753 mmHg 90%
21:00 +27°C° 0.5 mm 1 mps 753 mmHg 91%
22:00 +27°C° 0.5 mm 1 mps 754 mmHg 92%
23:00 +26°C° 0 mm 1 mps 753 mmHg 92%

17 July, Friday

Time Temperature Precipitation Wind Pressure Humidity
00:00 +24°C° 0 mm 0 mps 753 mmHg 92%
01:00 +24°C° 0 mm 0 mps 753 mmHg 92%
02:00 +24°C° 0 mm 0 mps 753 mmHg 92%
03:00 +24°C° 0 mm 0 mps 753 mmHg 92%
04:00 +23°C° 0 mm 0 mps 752 mmHg 93%
05:00 +24°C° 0.1 mm 0 mps 753 mmHg 92%
06:00 +24°C° 0.1 mm 0 mps 753 mmHg 91%
07:00 +26°C° 0.1 mm 1 mps 753 mmHg 91%
08:00 +28°C° 0.1 mm 1 mps 754 mmHg 82%
09:00 +30°C° 0.1 mm 1 mps 754 mmHg 74%
10:00 +32°C° 0.1 mm 1 mps 754 mmHg 65%
11:00 +32°C° 0.7 mm 1 mps 754 mmHg 67%
12:00 +32°C° 0.7 mm 1 mps 753 mmHg 69%
13:00 +31°C° 0.7 mm 1 mps 753 mmHg 71%
14:00 +31°C° 0.5 mm 1 mps 753 mmHg 73%
15:00 +31°C° 0.5 mm 1 mps 752 mmHg 75%
16:00 +30°C° 0.5 mm 1 mps 752 mmHg 77%
17:00 +29°C° 1.1 mm 1 mps 752 mmHg 81%
18:00 +29°C° 1.1 mm 1 mps 753 mmHg 84%
19:00 +26°C° 1.1 mm 0 mps 753 mmHg 87%
20:00 +27°C° 0.1 mm 1 mps 753 mmHg 88%
21:00 +27°C° 0.1 mm 1 mps 754 mmHg 89%
22:00 +27°C° 0.1 mm 1 mps 754 mmHg 89%
23:00 +27°C° 0 mm 1 mps 754 mmHg 90%
Show more